When you browse on this site, cookies collect data to enhance your experience and personalize the content and advertising you see.
Visit our Privacy Policy to learn more. By continuing to use the site, you agree to this use of cookies and data.
  • In Portugal
  • List of Countries
  • For 7 days
  • Water Temperature
  • Satellite Maps
  • Weather Map
  • Weather Widgets
  • user-avatar
    Login

    Hourly Weather Oita

    Today, 18 April, Thursday

    Time Temperature Precipitation Wind Pressure Humidity
    00:00 +14°C° 0 mm 1 mps 753 mmHg 84%
    01:00 +14°C° 0 mm 1 mps 753 mmHg 85%
    02:00 +14°C° 0 mm 1 mps 753 mmHg 85%
    03:00 +13°C° 0 mm 1 mps 753 mmHg 86%
    04:00 +13°C° 0 mm 1 mps 753 mmHg 86%
    05:00 +13°C° 0 mm 1 mps 754 mmHg 86%
    06:00 +13°C° 0 mm 1 mps 754 mmHg 85%
    07:00 +16°C° 0 mm 1 mps 754 mmHg 76%
    08:00 +20°C° 0 mm 1 mps 754 mmHg 67%
    09:00 +20°C° 0 mm 0 mps 755 mmHg 57%
    10:00 +24°C° 0 mm 1 mps 755 mmHg 53%
    11:00 +25°C° 0 mm 1 mps 755 mmHg 49%
    12:00 +27°C° 0 mm 2 mps 755 mmHg 45%
    13:00 +26°C° 0 mm 2 mps 755 mmHg 46%
    14:00 +26°C° 0 mm 2 mps 754 mmHg 46%
    15:00 +26°C° 0 mm 2 mps 754 mmHg 46%
    16:00 +25°C° 0 mm 2 mps 754 mmHg 52%
    17:00 +23°C° 0 mm 2 mps 754 mmHg 58%
    18:00 +22°C° 0 mm 1 mps 754 mmHg 64%
    19:00 +21°C° 0 mm 1 mps 754 mmHg 69%
    20:00 +19°C° 0 mm 1 mps 754 mmHg 74%
    21:00 +18°C° 0 mm 1 mps 755 mmHg 79%
    22:00 +16°C° 0 mm 1 mps 755 mmHg 78%
    23:00 +16°C° 0 mm 1 mps 755 mmHg 78%

    Tomorrow, 19 April, Friday

    Time Temperature Precipitation Wind Pressure Humidity
    00:00 +15°C° 0 mm 1 mps 755 mmHg 78%
    01:00 +15°C° 0 mm 1 mps 755 mmHg 79%
    02:00 +15°C° 0 mm 1 mps 755 mmHg 79%
    03:00 +14°C° 0 mm 1 mps 755 mmHg 80%
    04:00 +14°C° 0 mm 1 mps 755 mmHg 81%
    05:00 +14°C° 0 mm 1 mps 755 mmHg 81%
    06:00 +14°C° 0 mm 1 mps 755 mmHg 82%
    07:00 +16°C° 0 mm 1 mps 755 mmHg 73%
    08:00 +20°C° 0 mm 1 mps 755 mmHg 65%
    09:00 +22°C° 0 mm 1 mps 755 mmHg 56%
    10:00 +23°C° 0 mm 2 mps 755 mmHg 53%
    11:00 +24°C° 0 mm 2 mps 755 mmHg 49%
    12:00 +26°C° 0 mm 2 mps 755 mmHg 46%
    13:00 +26°C° 0 mm 2 mps 755 mmHg 46%
    14:00 +26°C° 0 mm 3 mps 754 mmHg 46%
    15:00 +26°C° 0 mm 3 mps 754 mmHg 47%
    16:00 +25°C° 0 mm 3 mps 754 mmHg 52%
    17:00 +22°C° 0 mm 3 mps 754 mmHg 58%
    18:00 +21°C° 0 mm 3 mps 754 mmHg 64%
    19:00 +19°C° 0 mm 3 mps 754 mmHg 69%
    20:00 +18°C° 0 mm 2 mps 755 mmHg 75%
    21:00 +16°C° 0 mm 2 mps 755 mmHg 80%
    22:00 +16°C° 0 mm 2 mps 755 mmHg 80%
    23:00 +15°C° 0 mm 2 mps 755 mmHg 80%

    Day after tomorrow, 20 April, Saturday

    Time Temperature Precipitation Wind Pressure Humidity
    00:00 +15°C° 0 mm 2 mps 755 mmHg 81%
    01:00 +15°C° 0 mm 2 mps 755 mmHg 81%
    02:00 +14°C° 0 mm 2 mps 755 mmHg 82%
    03:00 +14°C° 0 mm 1 mps 755 mmHg 83%
    04:00 +14°C° 0 mm 1 mps 755 mmHg 84%
    05:00 +14°C° 0 mm 1 mps 755 mmHg 85%
    06:00 +13°C° 0 mm 1 mps 755 mmHg 87%
    07:00 +15°C° 0 mm 1 mps 756 mmHg 78%
    08:00 +18°C° 0 mm 1 mps 756 mmHg 70%
    09:00 +19°C° 0 mm 2 mps 756 mmHg 61%
    10:00 +20°C° 0 mm 2 mps 756 mmHg 58%
    11:00 +23°C° 0 mm 2 mps 756 mmHg 54%
    12:00 +24°C° 0 mm 2 mps 756 mmHg 51%
    13:00 +24°C° 0 mm 3 mps 755 mmHg 53%
    14:00 +24°C° 0 mm 3 mps 755 mmHg 55%
    15:00 +24°C° 0 mm 3 mps 754 mmHg 57%
    16:00 +22°C° 0 mm 3 mps 754 mmHg 63%
    17:00 +22°C° 0 mm 3 mps 754 mmHg 69%
    18:00 +21°C° 0 mm 3 mps 754 mmHg 76%
    19:00 +20°C° 0 mm 3 mps 755 mmHg 80%
    20:00 +18°C° 0 mm 2 mps 755 mmHg 85%
    21:00 +17°C° 0 mm 2 mps 755 mmHg 90%
    22:00 +17°C° 0 mm 2 mps 755 mmHg 90%
    23:00 +17°C° 0 mm 2 mps 755 mmHg 90%

    21 April, Sunday

    Time Temperature Precipitation Wind Pressure Humidity
    00:00 +18°C° 0 mm 1 mps 755 mmHg 90%
    01:00 +16°C° 0 mm 1 mps 755 mmHg 90%
    02:00 +16°C° 0 mm 1 mps 754 mmHg 90%
    03:00 +16°C° 0 mm 1 mps 754 mmHg 89%
    04:00 +16°C° 0 mm 1 mps 754 mmHg 89%
    05:00 +16°C° 0 mm 1 mps 754 mmHg 89%
    06:00 +16°C° 0 mm 1 mps 754 mmHg 89%
    07:00 +19°C° 0 mm 1 mps 754 mmHg 81%
    08:00 +22°C° 0 mm 1 mps 754 mmHg 73%
    09:00 +22°C° 0 mm 0 mps 755 mmHg 65%
    10:00 +25°C° 0 mm 1 mps 754 mmHg 61%
    11:00 +26°C° 0 mm 1 mps 754 mmHg 58%
    12:00 +27°C° 0 mm 2 mps 754 mmHg 54%
    13:00 +26°C° 0.1 mm 2 mps 754 mmHg 59%
    14:00 +25°C° 0.1 mm 2 mps 753 mmHg 65%
    15:00 +24°C° 0.1 mm 2 mps 753 mmHg 70%
    16:00 +24°C° 0.1 mm 2 mps 753 mmHg 75%
    17:00 +23°C° 0.1 mm 1 mps 753 mmHg 79%
    18:00 +22°C° 0.1 mm 1 mps 753 mmHg 83%
    19:00 +21°C° 0 mm 1 mps 754 mmHg 86%
    20:00 +21°C° 0 mm 1 mps 754 mmHg 88%
    21:00 +18°C° 0 mm 0 mps 755 mmHg 91%
    22:00 +17°C° 0 mm 0 mps 754 mmHg 90%
    23:00 +19°C° 0 mm 1 mps 754 mmHg 90%

    22 April, Monday

    Time Temperature Precipitation Wind Pressure Humidity
    00:00 +18°C° 0 mm 1 mps 754 mmHg 89%
    01:00 +18°C° 0 mm 1 mps 754 mmHg 89%
    02:00 +18°C° 0 mm 1 mps 754 mmHg 88%
    03:00 +18°C° 0 mm 1 mps 754 mmHg 87%
    04:00 +18°C° 0 mm 1 mps 754 mmHg 87%
    05:00 +18°C° 0 mm 1 mps 754 mmHg 86%
    06:00 +18°C° 0 mm 1 mps 755 mmHg 85%
    07:00 +19°C° 0 mm 1 mps 755 mmHg 77%
    08:00 +21°C° 0 mm 1 mps 755 mmHg 69%
    09:00 +23°C° 0 mm 1 mps 755 mmHg 61%
    10:00 +24°C° 0 mm 1 mps 755 mmHg 58%
    11:00 +25°C° 0 mm 2 mps 755 mmHg 54%
    12:00 +27°C° 0 mm 2 mps 755 mmHg 51%
    13:00 +26°C° 0 mm 2 mps 754 mmHg 52%
    14:00 +26°C° 0 mm 2 mps 754 mmHg 54%
    15:00 +26°C° 0 mm 2 mps 754 mmHg 55%
    16:00 +25°C° 0 mm 2 mps 754 mmHg 60%
    17:00 +24°C° 0 mm 2 mps 754 mmHg 66%
    18:00 +23°C° 0 mm 1 mps 754 mmHg 71%
    19:00 +22°C° 0 mm 1 mps 755 mmHg 76%
    20:00 +21°C° 0 mm 1 mps 755 mmHg 81%
    21:00 +20°C° 0 mm 1 mps 756 mmHg 86%
    22:00 +20°C° 0 mm 1 mps 756 mmHg 86%
    23:00 +20°C° 0 mm 1 mps 756 mmHg 87%

    23 April, Tuesday

    Time Temperature Precipitation Wind Pressure Humidity
    00:00 +19°C° 0 mm 1 mps 756 mmHg 87%
    01:00 +19°C° 0 mm 1 mps 756 mmHg 86%
    02:00 +19°C° 0 mm 1 mps 756 mmHg 85%
    03:00 +19°C° 0 mm 1 mps 755 mmHg 85%
    04:00 +19°C° 0 mm 1 mps 756 mmHg 84%
    05:00 +19°C° 0 mm 1 mps 756 mmHg 83%
    06:00 +19°C° 0 mm 1 mps 756 mmHg 82%
    07:00 +21°C° 0 mm 1 mps 756 mmHg 76%
    08:00 +23°C° 0 mm 1 mps 757 mmHg 69%
    09:00 +25°C° 0 mm 1 mps 757 mmHg 62%
    10:00 +26°C° 0 mm 2 mps 757 mmHg 60%
    11:00 +27°C° 0 mm 2 mps 757 mmHg 57%
    12:00 +27°C° 0 mm 3 mps 756 mmHg 55%
    13:00 +27°C° 0.1 mm 3 mps 756 mmHg 55%
    14:00 +27°C° 0.1 mm 4 mps 756 mmHg 56%
    15:00 +27°C° 0.1 mm 4 mps 755 mmHg 57%
    16:00 +26°C° 0.1 mm 4 mps 756 mmHg 61%
    17:00 +25°C° 0.1 mm 3 mps 756 mmHg 65%
    18:00 +24°C° 0.1 mm 3 mps 756 mmHg 70%
    19:00 +22°C° 0 mm 3 mps 756 mmHg 76%
    20:00 +21°C° 0 mm 3 mps 756 mmHg 82%
    21:00 +19°C° 0 mm 3 mps 757 mmHg 88%
    22:00 +19°C° 0 mm 3 mps 757 mmHg 89%
    23:00 +18°C° 0 mm 3 mps 757 mmHg 91%
    Show more